RYR4BY EDDW-EGSS

Flight info

Callsign RYR4BY
Flight time 1h 6m
Altitude 36000
Route OKWEL1M OKWEL N125 EKNON DCT NOGRO M40 RINIS RINIS1A
Aircraft B738/M-SDE3FGIJ1LRWY/SB1

Departure

Time 2026-05-05 12:39
Airport Bremen Airport (EDDW)

Arrival

Time 2026-05-05 13:46
Airport London Stansted Airport (EGSS)
Time Latitude Longitude Altitude Speed Heading
2026-05-05 12:20 53.05235 8.78291 13 ft 0 kts 12°
2026-05-05 12:24 53.05228 8.78289 13 ft 2 kts 12°
2026-05-05 12:24 53.05213 8.78283 12 ft 2 kts 12°
2026-05-05 12:25 53.05204 8.78280 12 ft 2 kts 13°
2026-05-05 12:25 53.05190 8.78279 12 ft 2 kts 342°
2026-05-05 12:25 53.05176 8.78290 12 ft 2 kts 319°
2026-05-05 12:25 53.05167 8.78309 12 ft 1 kts 295°
2026-05-05 12:26 53.05165 8.78319 12 ft 1 kts 287°
2026-05-05 12:26 53.05164 8.78324 12 ft 0 kts 289°
2026-05-05 12:28 53.05169 8.78297 12 ft 5 kts 288°
2026-05-05 12:28 53.05185 8.78196 12 ft 8 kts 284°
2026-05-05 12:28 53.05187 8.78100 12 ft 10 kts 258°
2026-05-05 12:28 53.05155 8.77973 12 ft 12 kts 239°
2026-05-05 12:29 53.05102 8.77863 12 ft 14 kts 227°
2026-05-05 12:29 53.05056 8.77784 12 ft 11 kts 226°
2026-05-05 12:29 53.04980 8.77646 12 ft 16 kts 228°
2026-05-05 12:29 53.04897 8.77526 12 ft 15 kts 210°
2026-05-05 12:30 53.04801 8.77460 12 ft 14 kts 194°
2026-05-05 12:30 53.04757 8.77452 12 ft 0 kts 182°
2026-05-05 12:37 53.04754 8.77452 12 ft 1 kts 181°
2026-05-05 12:38 53.04739 8.77453 12 ft 0 kts 175°
2026-05-05 12:38 53.04702 8.77463 12 ft 15 kts 162°
2026-05-05 12:38 53.04670 8.77518 12 ft 4 kts 113°
2026-05-05 12:38 53.04664 8.77636 12 ft 12 kts 87°
2026-05-05 12:39 53.04668 8.77952 12 ft 67 kts 88°
2026-05-05 12:39 53.04701 8.79329 29 ft 164 kts 89°
2026-05-05 12:39 53.04776 8.81059 1520 ft 145 kts 77°
2026-05-05 12:39 53.04890 8.82572 2477 ft 144 kts 83°
2026-05-05 12:40 53.04887 8.84300 2923 ft 158 kts 87°
2026-05-05 12:40 53.04905 8.86151 3459 ft 166 kts 84°
2026-05-05 12:40 53.04961 8.88136 3978 ft 179 kts 86°
2026-05-05 12:40 53.04999 8.90248 4483 ft 193 kts 85°
2026-05-05 12:41 53.05056 8.92569 4983 ft 211 kts 84°
2026-05-05 12:41 53.05217 8.95080 5493 ft 228 kts 74°
2026-05-05 12:41 53.06002 8.97438 5967 ft 246 kts 42°
2026-05-05 12:41 53.07519 8.98818 6578 ft 259 kts 13°
2026-05-05 12:42 53.09313 8.99259 7245 ft 271 kts
2026-05-05 12:42 53.11200 8.99546 8066 ft 277 kts
2026-05-05 12:42 53.13128 8.99474 8881 ft 281 kts 349°
2026-05-05 12:42 53.15022 8.98667 9705 ft 285 kts 340°
2026-05-05 12:43 53.16897 8.97553 10434 ft 293 kts 338°
2026-05-05 12:43 53.18861 8.96343 10920 ft 309 kts 338°
2026-05-05 12:43 53.20914 8.95122 11394 ft 325 kts 338°
2026-05-05 12:43 53.23026 8.93610 11860 ft 339 kts 330°
2026-05-05 12:44 53.24929 8.91237 12374 ft 349 kts 312°
2026-05-05 12:44 53.26356 8.87956 13114 ft 353 kts 297°
2026-05-05 12:44 53.27313 8.84229 13849 ft 356 kts 287°
2026-05-05 12:44 53.27853 8.80194 14607 ft 359 kts 274°
2026-05-05 12:45 53.27861 8.76022 15405 ft 361 kts 266°
2026-05-05 12:45 53.27668 8.71877 16170 ft 363 kts 264°
2026-05-05 12:45 53.27412 8.67674 16863 ft 368 kts 264°
2026-05-05 12:45 53.27153 8.63465 17655 ft 368 kts 264°
2026-05-05 12:46 53.26912 8.59187 18312 ft 373 kts 265°
2026-05-05 12:46 53.26685 8.54876 19032 ft 375 kts 264°
2026-05-05 12:46 53.26376 8.50581 19735 ft 377 kts 261°
2026-05-05 12:46 53.25834 8.46297 20379 ft 380 kts 256°
2026-05-05 12:47 53.25113 8.42034 20994 ft 383 kts 253°
2026-05-05 12:47 53.24310 8.37797 21649 ft 385 kts 252°
2026-05-05 12:47 53.23480 8.33581 22252 ft 388 kts 251°
2026-05-05 12:47 53.22631 8.29299 22844 ft 391 kts 251°
2026-05-05 12:48 53.21782 8.24989 23387 ft 395 kts 251°
2026-05-05 12:48 53.20924 8.20590 23954 ft 398 kts 251°
2026-05-05 12:48 53.20088 8.16277 24567 ft 398 kts 251°
2026-05-05 12:48 53.19236 8.11872 25097 ft 401 kts 251°
2026-05-05 12:49 53.18380 8.07410 25651 ft 404 kts 252°
2026-05-05 12:49 53.17542 8.02999 26241 ft 405 kts 252°
2026-05-05 12:49 53.16696 7.98525 26770 ft 407 kts 252°
2026-05-05 12:49 53.15845 7.94024 27290 ft 410 kts 252°
2026-05-05 12:50 53.14999 7.89553 27822 ft 411 kts 252°
2026-05-05 12:50 53.14133 7.84988 28356 ft 412 kts 251°
2026-05-05 12:50 53.13275 7.80478 28822 ft 415 kts 251°
2026-05-05 12:50 53.12400 7.75899 29277 ft 417 kts 252°
2026-05-05 12:51 53.11517 7.71284 29761 ft 419 kts 251°
2026-05-05 12:51 53.10642 7.66728 30211 ft 421 kts 251°
2026-05-05 12:51 53.09749 7.62100 30686 ft 421 kts 251°
2026-05-05 12:51 53.08857 7.57491 31402 ft 416 kts 251°
2026-05-05 12:52 53.07972 7.52938 32089 ft 412 kts 251°
2026-05-05 12:52 53.07102 7.48470 32660 ft 409 kts 251°
2026-05-05 12:52 53.06233 7.44017 33160 ft 407 kts 251°
2026-05-05 12:52 53.05361 7.39551 33631 ft 406 kts 251°
2026-05-05 12:53 53.04494 7.35120 34095 ft 405 kts 251°
2026-05-05 12:53 53.03616 7.30634 34560 ft 403 kts 251°
2026-05-05 12:53 53.02744 7.26190 35103 ft 398 kts 250°
2026-05-05 12:53 53.01896 7.21875 35333 ft 400 kts 250°
2026-05-05 12:54 53.00129 7.13051 35691 ft 403 kts 250°
2026-05-05 12:54 52.99223 7.08604 35845 ft 406 kts 250°
2026-05-05 12:55 52.97406 6.99727 35903 ft 408 kts 250°
2026-05-05 12:55 52.95586 6.90829 35905 ft 406 kts 250°
2026-05-05 12:56 52.93761 6.81949 35911 ft 407 kts 250°
2026-05-05 12:56 52.91930 6.73080 35914 ft 407 kts 250°
2026-05-05 12:57 52.90097 6.64245 35914 ft 408 kts 250°
2026-05-05 12:57 52.88237 6.55319 35917 ft 408 kts 250°
2026-05-05 12:58 52.86377 6.46439 35917 ft 408 kts 250°
2026-05-05 12:58 52.84520 6.37625 35918 ft 409 kts 250°
2026-05-05 12:59 52.82634 6.28734 35916 ft 408 kts 249°
2026-05-05 12:59 52.80754 6.19896 35926 ft 409 kts 249°
2026-05-05 13:00 52.77916 6.06604 35931 ft 409 kts 249°
2026-05-05 13:01 52.73627 5.89229 35932 ft 409 kts 244°
2026-05-05 13:01 52.71279 5.80706 35935 ft 410 kts 245°
2026-05-05 13:02 52.68954 5.72189 35933 ft 412 kts 245°
2026-05-05 13:02 52.66629 5.63626 35926 ft 411 kts 245°
2026-05-05 13:03 52.64301 5.55031 35925 ft 411 kts 245°
2026-05-05 13:03 52.61970 5.46431 35924 ft 411 kts 245°
2026-05-05 13:04 52.59648 5.37914 35921 ft 412 kts 245°
2026-05-05 13:04 52.57295 5.29318 35910 ft 411 kts 244°
2026-05-05 13:05 52.54954 5.20785 35922 ft 414 kts 244°
2026-05-05 13:05 52.52584 5.12178 35928 ft 413 kts 244°
2026-05-05 13:06 52.50228 5.03647 35919 ft 413 kts 244°
2026-05-05 13:06 52.47860 4.95105 35916 ft 414 kts 244°
2026-05-05 13:07 52.45472 4.86524 35916 ft 415 kts 244°
2026-05-05 13:07 52.43066 4.77911 35921 ft 414 kts 244°
2026-05-05 13:08 52.40678 4.69388 35913 ft 416 kts 244°
2026-05-05 13:08 52.38264 4.60810 35921 ft 417 kts 244°
2026-05-05 13:09 52.35834 4.52202 35915 ft 416 kts 244°
2026-05-05 13:09 52.33410 4.43648 35911 ft 418 kts 244°
2026-05-05 13:10 52.30967 4.35058 35918 ft 417 kts 244°
2026-05-05 13:10 52.28513 4.26475 35920 ft 419 kts 243°
2026-05-05 13:11 52.26053 4.17901 35918 ft 419 kts 243°
2026-05-05 13:11 52.23583 4.09329 35912 ft 421 kts 243°
2026-05-05 13:12 52.21093 4.00705 35918 ft 420 kts 243°
2026-05-05 13:12 52.18608 3.92128 35916 ft 422 kts 243°
2026-05-05 13:13 52.16106 3.83524 35921 ft 423 kts 243°
2026-05-05 13:13 52.13584 3.74877 35927 ft 423 kts 243°
2026-05-05 13:14 52.11075 3.66306 35926 ft 423 kts 243°
2026-05-05 13:14 52.08554 3.57730 35930 ft 422 kts 243°
2026-05-05 13:15 52.06016 3.49131 35933 ft 424 kts 243°
2026-05-05 13:15 52.03462 3.40501 35906 ft 421 kts 243°
2026-05-05 13:16 52.02211 3.36282 35728 ft 414 kts 243°
2026-05-05 13:16 52.00958 3.32064 35334 ft 412 kts 242°
2026-05-05 13:16 51.99725 3.27923 34695 ft 414 kts 242°
2026-05-05 13:16 51.98478 3.23689 33925 ft 418 kts 243°
2026-05-05 13:17 51.97407 3.19291 33159 ft 426 kts 249°
2026-05-05 13:17 51.96606 3.14693 32400 ft 434 kts 254°
2026-05-05 13:17 51.96034 3.09863 31629 ft 437 kts 258°
2026-05-05 13:17 51.95615 3.04992 30865 ft 440 kts 260°
2026-05-05 13:18 51.95271 3.00057 30094 ft 445 kts 261°
2026-05-05 13:18 51.94959 2.95078 29333 ft 449 kts 262°
2026-05-05 13:18 51.94654 2.90048 28570 ft 452 kts 262°
2026-05-05 13:18 51.94348 2.85038 27818 ft 454 kts 262°
2026-05-05 13:19 51.94031 2.79949 27062 ft 455 kts 262°
2026-05-05 13:19 51.93709 2.74884 26359 ft 458 kts 263°
2026-05-05 13:19 51.93373 2.69740 25645 ft 461 kts 263°
2026-05-05 13:19 51.93036 2.64647 24954 ft 462 kts 263°
2026-05-05 13:20 51.92690 2.59510 24268 ft 457 kts 263°
2026-05-05 13:20 51.92344 2.54441 23625 ft 450 kts 263°
2026-05-05 13:20 51.92003 2.49473 23052 ft 446 kts 263°
2026-05-05 13:20 51.91655 2.44472 22595 ft 442 kts 263°
2026-05-05 13:21 51.91310 2.39583 22222 ft 443 kts 263°
2026-05-05 13:21 51.90969 2.34759 21960 ft 440 kts 262°
2026-05-05 13:21 51.90641 2.29837 21906 ft 430 kts 264°
2026-05-05 13:21 51.90446 2.25153 21653 ft 417 kts 266°
2026-05-05 13:22 51.90335 2.20483 21116 ft 412 kts 267°
2026-05-05 13:22 51.90262 2.15876 20597 ft 407 kts 268°
2026-05-05 13:22 51.90197 2.11352 20090 ft 401 kts 268°
2026-05-05 13:22 51.90127 2.06933 19591 ft 396 kts 268°
2026-05-05 13:23 51.90049 2.02516 19084 ft 391 kts 268°
2026-05-05 13:23 51.89962 1.98138 18670 ft 384 kts 267°
2026-05-05 13:23 51.89906 1.93864 18315 ft 382 kts 271°
2026-05-05 13:23 51.90194 1.89575 17966 ft 384 kts 281°
2026-05-05 13:24 51.90937 1.85432 17580 ft 384 kts 290°
2026-05-05 13:24 51.91988 1.81494 17149 ft 381 kts 295°
2026-05-05 13:24 51.93164 1.77741 16729 ft 377 kts 298°
2026-05-05 13:24 51.94407 1.74050 16310 ft 375 kts 299°
2026-05-05 13:25 51.95676 1.70349 15876 ft 373 kts 299°
2026-05-05 13:25 51.96925 1.66691 15466 ft 370 kts 299°
2026-05-05 13:25 51.98147 1.63066 15058 ft 367 kts 299°
2026-05-05 13:25 51.99356 1.59432 14663 ft 365 kts 299°
2026-05-05 13:26 52.00544 1.55828 14262 ft 363 kts 299°
2026-05-05 13:26 52.01718 1.52243 13842 ft 361 kts 299°
2026-05-05 13:26 52.02880 1.48682 13437 ft 359 kts 299°
2026-05-05 13:26 52.04037 1.45129 13044 ft 356 kts 299°
2026-05-05 13:27 52.05193 1.41572 12627 ft 353 kts 298°
2026-05-05 13:27 52.06332 1.38066 12205 ft 349 kts 299°
2026-05-05 13:27 52.07440 1.34657 11953 ft 338 kts 298°
2026-05-05 13:27 52.08506 1.31374 11937 ft 319 kts 298°
2026-05-05 13:28 52.09518 1.28254 11965 ft 301 kts 298°
2026-05-05 13:28 52.10469 1.25313 11932 ft 288 kts 298°
2026-05-05 13:28 52.11313 1.22362 11949 ft 291 kts 290°
2026-05-05 13:28 52.11656 1.19113 11712 ft 295 kts 266°
2026-05-05 13:29 52.11277 1.15902 11423 ft 293 kts 255°
2026-05-05 13:29 52.10668 1.12757 11086 ft 290 kts 252°
2026-05-05 13:29 52.10055 1.09658 10759 ft 289 kts 253°
2026-05-05 13:29 52.09481 1.06551 10435 ft 287 kts 255°
2026-05-05 13:30 52.08942 1.03432 10111 ft 285 kts 255°
2026-05-05 13:30 52.08425 1.00346 9787 ft 283 kts 255°
2026-05-05 13:30 52.07916 0.97270 9464 ft 281 kts 256°
2026-05-05 13:30 52.07407 0.94212 9142 ft 281 kts 255°
2026-05-05 13:31 52.06903 0.91203 8823 ft 280 kts 255°
2026-05-05 13:31 52.06391 0.88143 8497 ft 279 kts 256°
2026-05-05 13:31 52.05883 0.85120 8178 ft 278 kts 256°
2026-05-05 13:31 52.05374 0.82099 7953 ft 272 kts 256°
2026-05-05 13:32 52.04892 0.79250 7958 ft 258 kts 256°
2026-05-05 13:32 52.04428 0.76516 7952 ft 245 kts 256°
2026-05-05 13:32 52.03976 0.73842 7956 ft 249 kts 256°
2026-05-05 13:32 52.03516 0.71134 7962 ft 250 kts 256°
2026-05-05 13:33 52.03048 0.68376 7966 ft 263 kts 256°
2026-05-05 13:33 52.02551 0.65457 7943 ft 270 kts 256°
2026-05-05 13:33 52.02054 0.62550 7955 ft 263 kts 256°
2026-05-05 13:33 52.01621 0.59714 7929 ft 255 kts 262°
2026-05-05 13:34 52.01414 0.56911 7849 ft 248 kts 266°
2026-05-05 13:34 52.01281 0.54118 7469 ft 253 kts 267°
2026-05-05 13:34 52.01152 0.51242 6905 ft 260 kts 267°
2026-05-05 13:34 52.01012 0.48314 6328 ft 261 kts 267°
2026-05-05 13:35 52.00870 0.45409 6030 ft 253 kts 267°
2026-05-05 13:35 52.00738 0.42645 5957 ft 241 kts 268°
2026-05-05 13:35 52.00619 0.39971 5979 ft 238 kts 268°
2026-05-05 13:35 52.00509 0.37304 5973 ft 239 kts 268°
2026-05-05 13:36 52.00397 0.34624 5981 ft 239 kts 267°
2026-05-05 13:36 52.00283 0.31943 5984 ft 239 kts 267°
2026-05-05 13:36 52.00161 0.29230 5983 ft 238 kts 265°
2026-05-05 13:36 51.99753 0.26659 5961 ft 244 kts 241°
2026-05-05 13:37 51.98647 0.24536 5744 ft 246 kts 220°
2026-05-05 13:37 51.97305 0.22825 5494 ft 244 kts 218°
2026-05-05 13:37 51.95985 0.21095 5247 ft 242 kts 220°
2026-05-05 13:37 51.94748 0.19300 4999 ft 241 kts 223°
2026-05-05 13:38 51.93521 0.17433 4747 ft 241 kts 223°
2026-05-05 13:38 51.92309 0.15580 4500 ft 240 kts 223°
2026-05-05 13:38 51.91091 0.13721 4251 ft 240 kts 223°
2026-05-05 13:38 51.89873 0.11862 4002 ft 240 kts 223°
2026-05-05 13:39 51.88675 0.10037 3756 ft 239 kts 224°
2026-05-05 13:39 51.87451 0.08176 3505 ft 239 kts 224°
2026-05-05 13:39 51.86250 0.06347 3261 ft 238 kts 224°
2026-05-05 13:39 51.85039 0.04510 3015 ft 237 kts 223°
2026-05-05 13:40 51.83855 0.02724 2775 ft 235 kts 224°
2026-05-05 13:40 51.82669 0.00931 2538 ft 234 kts 223°
2026-05-05 13:40 51.81485 -0.00860 2475 ft 231 kts 223°
2026-05-05 13:40 51.80278 -0.02601 2467 ft 234 kts 215°
2026-05-05 13:41 51.78755 -0.03417 2475 ft 232 kts 176°
2026-05-05 13:41 51.77284 -0.02716 2477 ft 217 kts 144°
2026-05-05 13:41 51.76228 -0.01103 2487 ft 205 kts 123°
2026-05-05 13:41 51.75529 0.00881 2468 ft 202 kts 107°
2026-05-05 13:42 51.75386 0.03013 2469 ft 187 kts 73°
2026-05-05 13:42 51.76017 0.04795 2482 ft 184 kts 43°
2026-05-05 13:42 51.76947 0.06201 2467 ft 184 kts 41°
2026-05-05 13:42 51.77875 0.07633 2478 ft 184 kts 41°
2026-05-05 13:43 51.78820 0.09001 2472 ft 184 kts 40°
2026-05-05 13:43 51.79759 0.10406 2445 ft 184 kts 41°
2026-05-05 13:43 51.80683 0.11810 2227 ft 180 kts 41°
2026-05-05 13:43 51.81587 0.13141 1992 ft 176 kts 39°
2026-05-05 13:44 51.82465 0.14449 1754 ft 166 kts 41°
2026-05-05 13:44 51.83288 0.15688 1563 ft 157 kts 41°
2026-05-05 13:44 51.84071 0.16850 1360 ft 150 kts 41°
2026-05-05 13:44 51.84825 0.17975 1109 ft 146 kts 39°
2026-05-05 13:45 51.85564 0.19080 942 ft 144 kts 41°
2026-05-05 13:45 51.86295 0.20178 750 ft 145 kts 40°
2026-05-05 13:45 51.87058 0.21282 565 ft 146 kts 39°
2026-05-05 13:45 51.87799 0.22417 369 ft 147 kts 42°
2026-05-05 13:46 51.88461 0.23418 341 ft 96 kts 36°
2026-05-05 13:46 51.88770 0.23886 339 ft 38 kts 47°
2026-05-05 13:46 51.88882 0.24207 338 ft 28 kts 63°
2026-05-05 13:46 51.88924 0.24433 339 ft 0 kts 84°
2026-05-05 13:47 51.88924 0.24434 339 ft 0 kts 84°
2026-05-05 13:48 51.88923 0.24459 339 ft 7 kts 97°
2026-05-05 13:48 51.88909 0.24544 338 ft 8 kts 78°
2026-05-05 13:48 51.88963 0.24652 339 ft 16 kts 41°
2026-05-05 13:49 51.89050 0.24783 340 ft 16 kts 43°
2026-05-05 13:49 51.89142 0.24920 342 ft 18 kts 43°
2026-05-05 13:49 51.89226 0.25062 344 ft 16 kts 54°
2026-05-05 13:49 51.89227 0.25183 344 ft 11 kts 124°
2026-05-05 13:50 51.89169 0.25337 343 ft 17 kts 126°
2026-05-05 13:50 51.89125 0.25429 343 ft 2 kts 113°
2026-05-05 13:50 51.89125 0.25438 343 ft 2 kts 81°
2026-05-05 13:50 51.89115 0.25474 343 ft 1 kts 91°
2026-05-05 13:51 51.89115 0.25481 343 ft 0 kts 102°
2026-05-05 13:51 51.89115 0.25486 343 ft 0 kts 89°
2026-05-05 13:51 51.89115 0.25490 343 ft 0 kts 75°
2026-05-05 13:51 51.89117 0.25494 343 ft 0 kts 65°
2026-05-05 13:52 51.89117 0.25497 343 ft 1 kts 69°
2026-05-05 13:52 51.89129 0.25518 343 ft 2 kts 50°